Flag for Austria Weather past 2 weeks in Judenburg, Styria, Austria

Now
32 °F

Partly cloudy.


Feels Like: 32 °F
Forecast: 36 / 52 °F
Wind: 1 mph from North

Location: Zeltweg

Current Time: Mar 29, 2015 at 7:25:10 AM

Latest Report: Mar 29, 2015 at 6:50 AM


Visibility: 12 mi

Pressure: 29.92 "Hg

Humidity: 87%

Dew point: 28 °F

Location of JudenburgLocation

Historic Weather in Judenburg — Graph

°F

Judenburg temperature yesterday

Maximum temperature yesterday: 48 °F (at 12:50 PM)
Minimum temperature yesterday: 32 °F (at 9:50 PM)
Average temperature yesterday: 43 °F

Past Weeks' High & Low Weather Summary

 TemperatureHumidityPressure
High61 °F (Mar 21, 2:50 PM)100% (Mar 14, 5:50 AM)30.45 "Hg (Mar 14, 5:50 AM)
Low21 °F (Mar 14, 5:50 AM)23% (Mar 19, 4:50 PM)29.68 "Hg (Mar 25, 3:50 PM)
Average43 °F64%30.08 "Hg
* Reported Mar 14 4:50 AM — Mar 29 5:50 AM, Judenburg, Weather by CustomWeather, © 2015

Note: Actual official high and low records may vary slightly from our data, if they occured in-between our weather recording intervals... More about our weather records

Advertising

Judenburg weather history for previous 24 hours

 ConditionsComfort  
Time TempWeatherWind HumidityBarometerVisibility
5:50 AM
Sun, Mar 29
32 °FPartly cloudy.3 mph87%29.92 "Hg9 mi
9:50 PM
Sat, Mar 28
32 °FClear.1 mph75%30.01 "Hg12 mi
8:50 PM36 °FClear.3 mph70%30.01 "Hg12 mi
7:50 PM36 °FClear.3 mph65%30.01 "Hg12 mi
6:50 PM43 °FClear.3 mph46%30.01 "Hg16 mi
5:50 PM45 °FPassing clouds.9 mph46%30.01 "Hg16 mi
4:50 PM48 °FPassing clouds.10 mph37%29.98 "Hg19 mi
3:50 PM48 °FPassing clouds.13 mph37%30.01 "Hg19 mi
2:50 PM48 °FPassing clouds.15 mph34%30.01 "Hg19 mi
1:50 PM46 °FPassing clouds.12 mph40%30.04 "Hg19 mi
12:50 PM48 °FPassing clouds.18 mph37%30.04 "Hg16 mi
11:50 AM46 °FPassing clouds.17 mph43%30.07 "Hg19 mi
10:50 AM45 °FScattered clouds.7 mph46%30.07 "Hg19 mi
9:50 AM45 °FPartly sunny.8 mph39%30.07 "Hg19 mi
8:50 AM43 °FPartly sunny.10 mph46%30.07 "Hg16 mi
7:50 AM43 °FPartly sunny.7 mph49%30.07 "Hg16 mi
Weather by CustomWeather, © 2015

See weather overviewHow to use our weather pages